STARLINK-37619, 69309

Orbit data source: Space-Track

STARLINK-37619, 69309 is a payload satellite owned by SpaceX/Seattle (US) in SSO that was launched on Sat, 30 May 2026 UTC via an FALCON 9 launch vehicle from the Air Force Western Test Range (AFWTR). Payload-class satellites include a variety of spacecraft equipped with specific instruments for various scientific and technological missions. These include communications satellites like Starlink; space stations such as the ISS; scientific satellites like the Hubble; Earth observation satellites from companies like Planet Labs, Umbra, and HawkEye 360; GPS; miniature CubeSats for education and research; and military/defense satellites.

Loading next visibility...
Identifier
69309, 2026-119P
Orbit
SSO
Country
Flag of USUS
Related business
Manufacturer
SpaceX/Seattle
Mission
Operational spacecraft
Bus & Motor
STARLINK V2MO, Unknown motor
Mass
575 kg wet, ~530 kg dry
Launch date (UTC)
2026-05-30 (2 months ago)
Launch vehicle
FALCON 9
Launch site
Air Force Western Test Range (AFWTR)
Object type
Payload
Rocket body
Debris
Shape & HBR
Unknown shape, 17.7 m
Radar Cross Section
Large (>1 m²)

Expand to show TLE details & history
Last TLE update: 17 hours ago

TLE from 17 hours ago
0 STARLINK-37619
1 69309U 26119P   26202.02466385  .00015391  00000-0  47799-3 0  9990
2 69309  97.2849 227.6598 0000769  94.8848 265.2482 15.33452386  9244
Epoch: 2026-07-21T00:35Z
TLE epoch observation values (Epoch: 2026-07-21T00:35:30.956Z)
Latitude
-0.00009°
Longitude
-80.01946°
Altitude
468.677 km
Speed
7.632 km/s
True Right ascension
15h 10m 38s
True Declination
0° 00' 00"
Sunlit
Object was in daylight at epoch
Visualization orbit readout
Latitude
Unknown
Longitude
Unknown
Altitude
Unknown
Speed
Unknown
Apparent Right ascension
Unknown
Apparent Declination
Unknown
Sunlit
N/A
Visualization observer readout
Local Sidereal Time
06:12:02
Azimuth
Unknown
Elevation
Unknown
Doppler factor
Unknown
Orbital elements
Apogee altitude
462.99 km
Perigee altitude
461.938 km
Semi-major axis
6,840.601 km
Eccentricity
0.00008
Inclination
97.2849°
RAAN
227.6598°
Arg. of periapsis
94.8848°
True anomaly
265.23942°
Mean anomaly
265.2482°
Eccentric anomaly
265.24381°
Mean motion
3.8362 °/min
Orbital period
93.84 mins
BSTAR
0.00047799
Loading maneuver chart data...
Computing Atmospheric mass density...
Loading historical data...
Loading historical data...
Loading historical data...
Loading historical data...
Loading historical data...
Loading historical data...
Loading historical data...

Documentation

Showing up to 5 results
|